Starlink 6328

operational
NORAD ID: 56523 Int'l Des: 2023-065 Owner: SPXS Country: US Constellation: starlink
LEOCIRCULAR

About Starlink 6328

Description loading...

Live Position

Loading 3D Globe...

Upcoming Passes

Altitude History

Altitude vs Time

uPlot chart will show altitude changes over time

Two-Line Element Set

1 56523U 23065W 25351.22099836 -.00000178 00000-0 19045-5 0 9993
2 56523 43.0046 298.0759 0001112 266.5480 93.5235 15.02537249144224
Epoch: Dec 17, 2025 • Age: 9 hours

Current Status

Altitude 561.5 km
Velocity 7.58 km/s
Sub-Earth Point -14.44°S, 167.04°W
Launch Date May 14, 2023
Age 2.5 years
Type internet

Technical Details

Classification Payload
Mass 305.00 kg
Dry Mass 290.00 kg
Total Mass 305.00 kg
Length 0.20 m
Diameter 2.80 m
Span 9.00 m
Shape Box + pan
Manufacturer SPXS
Bus Type Starlink
Phase Status In Orbit
Owner/State SPXS/US

Large Constellations

Loading constellations...